Flag for Germany Weather past 2 weeks in Schweinfurt, Bavaria, Germany

Now
40 °F

Drizzle. Overcast.


Feels Like: 37 °F
Forecast: 28 / 41 °F
Wind: 5 mph from Northwest

Location: Wuerzburg

Current Time: Feb 27, 2015 at 6:12:15 PM

Latest Report: Feb 27, 2015 at 5:00 PM


Visibility: 14 mi

Pressure: 29.96 "Hg

Humidity: 80%

Dew point: 35 °F

Location of SchweinfurtLocation

Historic Weather in Schweinfurt — Graph

°F

Schweinfurt temperature yesterday

Maximum temperature yesterday: 49 °F (at 4:00 PM)
Minimum temperature yesterday: 29 °F (at 3:00 AM)
Average temperature yesterday: 38 °F

Past Weeks' High & Low Weather Summary

 TemperatureHumidityPressure
High53 °F (Feb 20, 4:00 PM)100% (Feb 13, 5:00 AM)30.79 "Hg (Feb 13, 5:00 AM)
Low25 °F (Feb 15, 7:00 AM)44% (Feb 26, 4:00 PM)29.50 "Hg (Feb 21, 8:00 AM)
Average34 °F87%30.07 "Hg
* Reported Feb 12 5:00 PM — Feb 27 5:00 PM, Schweinfurt, Weather by CustomWeather, © 2015

Note: Actual official high and low records may vary slightly from our data, if they occured in-between our weather recording intervals... More about our weather records

Advertising

Schweinfurt weather history for previous 24 hours

 ConditionsComfort  
Time TempWeatherWind HumidityBarometerVisibility
5:00 PM
Fri, Feb 27
40 °FDrizzle. Overcast.5 mph80%29.96 "Hg14 mi
4:00 PM42 °FOvercast.2 mph68%29.94 "Hg14 mi
3:00 PM42 °FOvercast.2 mph63%29.91 "Hg12 mi
2:00 PM41 °FOvercast.1 mph67%29.90 "Hg12 mi
1:00 PM40 °FOvercast.2 mph68%29.90 "Hg12 mi
12:00 PM38 °FOvercast.2 mph72%29.90 "Hg11 mi
11:00 AM38 °FOvercast.1 mph73%29.88 "Hg10 mi
10:00 AM35 °FOvercast.1 mph78%29.87 "Hg11 mi
9:00 AM34 °FOvercast.3 mph82%29.86 "Hg12 mi
8:00 AM34 °FOvercast.3 mph82%29.85 "Hg16 mi
7:00 AM34 °FOvercast.2 mph82%29.85 "Hg12 mi
6:00 AM34 °FOvercast.2 mph82%29.85 "Hg11 mi
5:00 AM34 °FOvercast.2 mph82%29.87 "Hg9 mi
4:00 AM33 °FOvercast.1 mph82%29.87 "Hg9 mi
3:00 AM32 °FPassing clouds.2 mph83%29.90 "Hg11 mi
2:00 AM31 °FPassing clouds.2 mph85%29.93 "Hg11 mi
1:00 AM33 °FPassing clouds.1 mph80%29.95 "Hg14 mi
12:00 AM33 °FPassing clouds.2 mph77%29.97 "Hg16 mi
11:00 PM
Thu, Feb 26
34 °FPassing clouds.1 mph75%29.99 "Hg16 mi
10:00 PM36 °FPassing clouds.3 mph70%30.00 "Hg19 mi
9:00 PM37 °FClear.5 mph70%30.02 "Hg19 mi
8:00 PM39 °FClear.5 mph70%30.03 "Hg25 mi
7:00 PM42 °FPassing clouds.3 mph63%30.04 "Hg25 mi
6:00 PM44 °FPassing clouds.3 mph56%30.03 "Hg31 mi
Weather by CustomWeather, © 2015

See weather overviewHow to use our weather pages